Regional Weather Roundup
Issued by NWS

Current Version |  Previous Version |  Text Only |  Print | Product List |  Glossary On
Versions: 1 2 3 4 5 6 7 8 9 10 11 12 13 14 15 16 17 18 19 20 21 22 23 24 25 26 27 28
666
ASUS44 KJAN 180110
RWRMS

MISSISSIPPI HOURLY WEATHER ROUNDUP
NATIONAL WEATHER SERVICE JACKSON MS
800 PM CDT FRI MAY 17 2024

NOTE: "FAIR: INDICATES FEW OR NO CLOUDS BELOW 12,000 FEET WITH NO
SIGNIFICANT WEATHER AND/OR OBSTRUCTIONS TO VISIBILITY.

MSZ001>002-007>008-010>013-018>021-025>028-034>036-180200-
NORTHWEST MISSISSIPPI

CITY           SKY/WX    TMP DP  RH WIND       PRES   REMARKS
BATESVILLE     CLOUDY    75  70  83 SE5       29.76R
CLARKSDALE       N/A     82  82 100 W3        29.75R HX  97
GREENWOOD      CLOUDY    78  68  71 SE5       29.75S
GREENVILLE     CLOUDY    76  69  79 S7        29.74S
OLIVE BRANCH   CLEAR     75  66  73 E5        29.76R
OXFORD         CLOUDY    73  68  83 E5        29.79S
TUNICA         PTCLDY    77  71  83 E3        29.75R
WINONA         CLOUDY    74  69  85 CALM      29.77S
$$

MSZ003>006-009-014>017-022>024-029>033-037>039-180200-
NORTHEAST MISSISSIPPI

CITY           SKY/WX    TMP DP  RH WIND       PRES   REMARKS
ABERDEEN       MOCLDY    73  73 100 CALM      29.80R
COLUMBUS AFB   CLOUDY    74  69  82 S6        29.75S
CORINTH        MOCLDY    70  68  94 SE5       29.78S
GOLDN TRIANGLE MOCLDY    73  70  90 SE7       29.80R
IUKA             N/A     70  70 100 CALM      29.80S
LOUISVILLE     CLOUDY    73  70  88 S6        29.81S
STARKVILLE     CLOUDY    73  72  94 SE5       29.77R
TUPELO         CLOUDY    77  68  73 E5        29.78R
$$

MSZ040-058-180200-
CENTRAL MISSISSIPPI

CITY           SKY/WX    TMP DP  RH WIND       PRES   REMARKS
JACKSON INTL   CLOUDY    74  71  91 SE5       29.78R
JACKSON HAWKNS CLOUDY    74  70  87 SE5       29.78R
MADISON        CLOUDY    73  73 100 CALM      29.78R
MERIDIAN KEY   CLOUDY    72  70  93 S3        29.80S
MERIDIAN NAS   CLOUDY    72  70  93 SE6       29.81R
RAYMOND        CLOUDY   N/A N/A N/A CALM      29.78R
VICKSBURG VKS  CLEAR     75  72  88 CALM      29.76R
$$

MSZ059>079-180200-
SOUTH MISSISSIPPI

CITY           SKY/WX    TMP DP  RH WIND       PRES   REMARKS
BROOKHAVEN     MOCLDY   N/A N/A N/A CALM      29.81R
HATTIESBURG    CLOUDY    75  72  90 N3        29.80R
LAUREL         DRIZZLE   72 N/A N/A CALM      29.81R FOG
MCCOMB         CLOUDY    70  70 100 SE3       29.81R FOG
NATCHEZ        CLOUDY    72  70  93 CALM      29.77F
PINE BELT      CLOUDY    72  72 100 N3        29.82R
$$

MSZ080>082-180200-
COASTAL MISSISSIPPI

CITY           SKY/WX    TMP DP  RH WIND       PRES   REMARKS
BILOXI         CLOUDY    81  77  89 SW10      29.76R
GULFPORT       CLOUDY    82  78  88 S7        29.77R HX  91
PASCAGOULA     CLOUDY    80  77  90 VRB6      29.77F
$$

LAZ007>009-015>016-023>026-180200-
NORTHEAST LOUISIANA

CITY           SKY/WX    TMP DP  RH WIND       PRES   REMARKS
BASTROP        CLOUDY    73  71  93 CALM      29.78R
TALLULAH/VBURG CLOUDY    74  69  85 CALM      29.77R
VIDALIA        CLOUDY    73  71  93 CALM      29.78F
$$